Terug naar catalogus

THEMIS E

ActiefWetenschapHEO
NORAD 30798·PAYLOAD·🇺🇸 United States

Gelanceerd Feb 17, 2007 vanaf Cape Canaveral Space Force Station

Loading…

Volgende Passages (komende 24 uur)

TLE

VersSource: Space-Track

Epoch: Sep 13, 2026, 16:34 UTC

1 30798U 07004E   26256.69042101 -.00000491  00000-0  00000-0 0  9997
2 30798   7.0899  91.4611 8418923 232.9210  15.8626  0.87839811 66698

Volg THEMIS E in realtime met AllMySat

Download on the App Store